Flag for U.S.A. Weather past 2 weeks in Salem, Oregon, U.S.A.

Now
69 °F

Sunny.


Feels Like: 69 °F
Forecast: 47 / 66 °F
Wind: 7 mph from Northeast

Location: McNary Field

Current Time: Mar 26, 2015 at 5:05:16 PM

Latest Report: Mar 26, 2015 at 3:56 PM


Visibility: 10 mi

Pressure: 30.15 "Hg

Humidity: 53%

Dew point: 51 °F

Location of SalemLocation

Historic Weather in Salem — Graph

°F

Salem temperature yesterday

Maximum temperature yesterday: 63 °F (at 4:56 PM)
Minimum temperature yesterday: 50 °F (at 12:56 AM)
Average temperature yesterday: 56 °F

Past Weeks' High & Low Weather Summary

 TemperatureHumidityPressure
High70 °F (Mar 12, 4:56 PM)97% (Mar 16, 5:56 AM)30.43 "Hg (Mar 16, 5:56 AM)
Low37 °F (Mar 16, 4:56 AM)37% (Mar 19, 3:56 PM)29.69 "Hg (Mar 15, 9:56 AM)
Average53 °F78%30.10 "Hg
* Reported Mar 11 3:56 PM — Mar 26 3:56 PM, Salem, Weather by CustomWeather, © 2015

Note: Actual official high and low records may vary slightly from our data, if they occured in-between our weather recording intervals... More about our weather records

Advertising

Salem weather history for previous 24 hours

 ConditionsComfort  
Time TempWeatherWind HumidityBarometerVisibility
3:56 PM
Thu, Mar 26
69 °FSunny.7 mph53%30.15 "Hg10 mi
2:56 PM69 °FSunny.3 mph53%30.17 "Hg10 mi
1:56 PM66 °FSunny.6 mph56%30.20 "Hg10 mi
12:56 PM62 °FSunny.6 mph65%30.23 "Hg10 mi
11:56 AM59 °FPassing clouds.6 mph69%30.24 "Hg10 mi
10:56 AM55 °FScattered clouds.3 mph83%30.26 "Hg10 mi
9:56 AM50 °FFog.3 mph96%30.27 "Hg2 mi
8:56 AM50 °FFog.No wind93%30.27 "Hg0 mi
7:56 AM49 °FFog.3 mph97%30.26 "Hg0 mi
6:56 AM49 °FFog.3 mph97%30.26 "Hg1 mi
5:56 AM49 °FFog.No wind93%30.27 "Hg1 mi
4:56 AM49 °FFog.No wind97%30.27 "Hg0 mi
4:04 AM49 °FFog.No wind97%30.28 "Hg0 mi
2:56 AM46 °FLow clouds.No wind96%30.29 "Hg10 mi
1:56 AM47 °FClear.No wind97%30.29 "Hg10 mi
1:03 AM48 °FFog.No wind93%30.30 "Hg1 mi
12:56 AM49 °FClear.No wind93%30.30 "Hg8 mi
11:56 PM
Wed, Mar 25
51 °FClear.No wind92%30.31 "Hg10 mi
10:56 PM52 °FClear.No wind93%30.32 "Hg10 mi
9:56 PM53 °FClear.No wind86%30.32 "Hg10 mi
8:56 PM55 °FClear.No wind83%30.32 "Hg10 mi
7:56 PM59 °FSunny.No wind75%30.30 "Hg10 mi
6:56 PM62 °FPartly sunny.3 mph65%30.31 "Hg10 mi
5:56 PM62 °FPartly sunny.3 mph65%30.31 "Hg10 mi
Weather by CustomWeather, © 2015

See weather overviewHow to use our weather pages